Regional Weather Roundup
Issued by NWS

Home | Current Version | Previous Version | Graphics & Text | Print | Product List | Glossary On
Versions: 1 2 3 4 5 6 7 8 9 10 11 12 13 14 15 16 17 18 19 20 21 22 23 24 25 26 27 28 29 30 31 32 33 34 35 36 37 38 39 40 41 42 43 44 45 46 47 48 49 50
000
ASUS43 KMPX 300701
RWRMN
WEATHER ROUNDUP FOR MINNESOTA
NATIONAL WEATHER SERVICE TWIN CITIES/CHANHASSEN MN
200 AM CDT SUN APR 30 2017


NOTE: "FAIR" INDICATES FEW OR NO CLOUDS BELOW 12,000 FEET WITH NO
SIGNIFICANT WEATHER AND/OR OBSTRUCTIONS TO VISIBILITY. N/A MEANS
CURRENT SKY AND/OR WEATHER CONDITIONS ARE NOT AVAILABLE.

MNZ060>063-068>070-300800-
   Twin Cities Metro

CITY           SKY/WX    TMP DP  RH WIND       PRES   REMARKS
TWIN CITIES    CLOUDY    46  25  43 NE16      30.14F
ST PAUL        CLOUDY    46  27  47 NE12      30.16F
CRYSTAL        CLOUDY    45  24  43 NE9G18    30.14F
LAKEVILLE      CLOUDY    45  28  53 NE13      30.13S
EDEN PRAIRIE   CLOUDY    47  26  44 NE9       30.12F
SOUTH ST PAUL  CLOUDY    46  26  46 NE8       30.14F
LAKE ELMO      CLOUDY    45  28  53 NE12      30.16S
$$
MNZ001>005-007-008-013>017-022>024-027-028-300800-
   Northwest Minnesota

CITY           SKY/WX    TMP DP  RH WIND       PRES   REMARKS
BEMIDJI        MOCLDY    40  24  54 E5        30.22S
HALLOCK        CLOUDY    39  28  65 SE8       30.19S
ROSEAU         CLOUDY    43  27  52 SE3       30.21F
WARROAD        CLOUDY    43  27  52 SE6       30.22S
THIEF RVR FALL CLOUDY    43  25  49 SE5       30.22S
CROOKSTON      CLOUDY    43  30  61 SE6       30.21S
FOSSTON        CLOUDY    37  25  60 E5        30.22R
DETROIT LAKES  CLOUDY    45  27  49 SE10      30.21R
MOORHEAD       CLOUDY    37  30  75 CALM      30.20F
PARK RAPIDS    CLOUDY    43  17  35 SE8       30.20F
MAHNOMEN       FAIR      43  26  49 SE12      30.21R
$$
MNZ006-009>011-018-025>026-300800-
   North Central Minnesota

CITY           SKY/WX    TMP DP  RH WIND       PRES   REMARKS
BAUDETTE       CLOUDY    38  20  48 SE7       30.23S
FLAG ISLAND    PTCLDY    43  27  52 SE6       30.22S
INTL FALLS     CLOUDY    35  21  56 SE3       30.25F
WASKISH        CLOUDY    41  25  52 SE3       30.23F
BIG FORK       CLOUDY    39  19  45 CALM      30.24F
LONGVILLE      CLOUDY    39  18  41 E5        30.22F
GRAND RAPIDS   CLOUDY    37  17  44 SE3       30.26F
CRANE LAKE     CLOUDY    28  21  74 CALM      30.29F
ORR            CLOUDY    36  16  44 CALM      30.23F
COOK           CLOUDY    30  21  69 CALM      30.26F
WALKER         FAIR      41  19  41 E8        30.22F
$$
MNZ012-019>021-037-300800-
   Northeast Minnesota

CITY           SKY/WX    TMP DP  RH WIND       PRES   REMARKS
DULUTH         MOCLDY    35  16  45 NE6       30.24F WCI  30
ELY            PTCLDY    28  23  80 CALM      30.27F
HIBBING        MOCLDY    30  23  75 CALM      30.26F
EVELETH        PTCLDY    32  17  53 NE3       30.27F
DULUTH HARBOR  CLOUDY    39  27  60 NE12      30.28F
TWO HARBORS    CLOUDY    37  19  48 N5        30.25F
SILVER BAY     CLOUDY    32  25  74 CALM      30.26F
GRAND MARAIS     N/A     31  24  75 CALM      30.30F
G MARAIS ARPRT PTCLDY    28  18  64 N6        30.28F WCI  22
$$
MNZ029>031-032-039>041-046>048-054>057-064-300800-
   West Central Minnesota

CITY           SKY/WX    TMP DP  RH WIND       PRES   REMARKS
FERGUS FALLS   MOCLDY    46  25  42 SE10      30.17F
WHEATON        CLOUDY    41  27  56 E7        30.18F
MORRIS         CLOUDY    45  21  39 E9        30.15F
ALEXANDRIA     CLOUDY    43  22  43 E12       30.17F
ELBOW LAKE     FAIR      45  26  47 NE3       30.17F
WADENA         MOCLDY    41  21  45 E8        30.19F
GLENWOOD       CLOUDY    43  25  49 NE12      30.16F
APPLETON       CLOUDY    43  25  49 NE8       30.14F
BENSON         CLOUDY    46  16  29 E6        30.16F
ORTONVILLE     CLOUDY    45  25  45 NE6       30.14F
MADISON        CLOUDY    46  23  39 NE7       30.14F
WILLMAR        FAIR      46  25  42 NE10      30.15F
$$
MNZ033>034-036-042>043-049>051-058-059-300800-
   Central Minnesota

CITY           SKY/WX    TMP DP  RH WIND       PRES   REMARKS
ST CLOUD       CLOUDY    42  25  50 NE10      30.17F
SAUK CENTRE    FAIR      42  23  46 E13       30.18F
PAYNESVILLE    CLOUDY    43  24  46 NE8       30.17F
AITKIN         CLOUDY    37  19  48 NE6       30.21F
PINE RIVER     CLOUDY    39  25  56 E8        30.24F
BRAINERD       CLOUDY    40  21  46 E7        30.21F
STAPLES        CLOUDY    39  18  41 E5        30.20F
LONG PRAIRIE   FAIR      39  23  52 N8        30.19F
LITTLE FALLS   CLOUDY    41  23  48 NE5       30.19F
LITCHFIELD     CLOUDY    46  28  49 NE9       30.16F
BUFFALO        CLOUDY    43  26  49 NE9       30.16F
MAPLE LAKE     CLOUDY    44  28  53 NE7       30.17F
HUTCHINSON     CLOUDY    45  29  52 NE10      30.15S
$$
MNZ037-044-045-052-053-300800-
   East Central Minnesota

CITY           SKY/WX    TMP DP  RH WIND       PRES   REMARKS
PRINCETON      CLOUDY    43  25  49 N8        30.19S
MORA           CLOUDY    37  19  48 NE6       30.21F
CAMBRIDGE      CLOUDY    43  27  52 NE3       30.17F
RUSH CITY      CLOUDY    40  22  49 NE8       30.18F
MOOSE LAKE     MOCLDY    36  21  55 CALM      30.21F
HINCKLEY       FAIR      39  23  52 N8        30.20F
CLOQUET        CLOUDY    36  16  44 NE5       30.24F
MCGREGOR       CLOUDY    37  23  56 NE3       30.24F
$$
MNZ071>073-080-081-089-090-097-098-300800-
   Southwest Minnesota

CITY           SKY/WX    TMP DP  RH WIND       PRES   REMARKS
MONTEVIDEO     CLOUDY    45  23  42 E9        30.13F
GRANITE FALLS  CLOUDY    46  26  44 NE10      30.15F
CANBY          CLOUDY    46  22  40 NE8       30.14F
MARSHALL       CLOUDY    45  26  47 NE12      30.12F
REDWOOD FALLS  CLOUDY    46  27  47 E8        30.12F
OLIVIA         CLOUDY    45  28  53 NE9       30.13F
PIPESTONE      CLOUDY    45  19  36 NE9       30.09F
WINDOM         MOCLDY    45  28  53 N10       30.09F
WORTHINGTON    CLOUDY    43  28  55 NE14      30.08F
JACKSON        CLOUDY    45  30  57 NE14      30.08S
TRACY          MOCLDY    44  31  58 NE9       30.11F
SLAYTON        CLOUDY    43  27  51 NE10      30.10F
$$
MNZ065>067-074>077-082>085-091>093-300800-
   South Central Minnesota

CITY           SKY/WX    TMP DP  RH WIND       PRES   REMARKS
MANKATO        CLOUDY    47  29  49 NE10      30.10F
NEW ULM        CLOUDY    46  25  42 NE14G20   30.10F
ST JAMES       CLOUDY    45  34  65 N7        30.10F
FAIRMONT       CLOUDY    45  32  60 NE10      30.08F
GLENCOE        CLOUDY    46  30  53 NE7       30.13S
FARIBAULT      CLOUDY    45  30  57 N8        30.12S
OWATONNA       CLOUDY    45  30  57 NE7       30.10S
WASECA         CLOUDY    45  32  61 NE10      30.11S
ALBERT LEA     CLOUDY    45  28  53 E13G23    30.07S
$$
MNZ078>079-086>088-094>096-300800-
   Southeast Minnesota

CITY           SKY/WX    TMP DP  RH WIND       PRES   REMARKS
ROCHESTER      CLOUDY    43  29  57 E17G23    30.09F
RED WING       CLOUDY    46  25  42 E10       30.12S
STANTON        CLOUDY    46  31  56 NE13      30.11F
DODGE CENTER   CLOUDY    45  30  57 NE14      30.09F
WINONA         CLOUDY    46  28  49 E13G20    30.12F
AUSTIN         CLOUDY    45  28  53 E17       30.06F
PRESTON        CLOUDY    42  27  55 NE13G18   30.08F
$$
ABBREVIATIONS USED IN REMARKS
   TC - TEMPERATURES IN CELSIUS
  WCI - WIND CHILL INDEX
   HX - HEAT INDEX
  VSB - VISIBILITY
$$



USA.gov is the U.S. government's official web portal to all federal, state and local government web resources and services.